OBJECT N, 64888

Orbit data source: Space-Track

You're viewing an Uncataloged Satellite

Recently launched and/or uncataloged satellites may have evolving metadata. Metadata may include but not limited to: Owner, Maufacturer, Bus, Motor, and Mission.

OBJECT N, 64888 is a satellite in SSO that was launched on Fri, 25 Jul 2025 UTC via a SOYUZ-2-1B launch vehicle from the Vostochny Cosmodrome (VOSTO). Unknown objects in Earth's orbit typically refer to objects detected orbiting the Earth but have not yet been identified or cataloged. These objects could be anything from previously untracked satellites, spent rocket stages, debris from satellite collisions, or even natural meteoroids temporarily captured by Earth's gravity.

Loading next visibility...
Identifier
64888, 2025-155N
Orbit
SSO
Country
Flag of TBDTBD
Related business
None
Manufacturer
Unknown
Mission
Operational Commercial Technology
Bus & Motor
Unknown
Mass
Unknown
Launch date (UTC)
2025-07-25 (8 months ago)
Launch vehicle
SOYUZ-2-1B
Launch site
Vostochny Cosmodrome (VOSTO)
Object type
Unknown
Shape & HBR
Box, 1.1 m
Radar Cross Section
0.035 m², Small (<0.1 m²)

Expand to show TLE details & history
Last TLE update: 7 hours ago

TLE from 7 hours ago
0 OBJECT N
1 64888U 25155N   26073.95319333  .00040657  00000-0  11601-2 0  9999
2 64888  97.4401  43.4400 0009495 123.3157 236.8997 15.35884857 66443
Epoch: 2026-03-14T22:52Z
TLE epoch observation values (Epoch: 2026-03-14T22:52:35.903Z)
Latitude
-0.00005°
Longitude
-112.27657°
Altitude
464.954 km
Speed
7.632 km/s
True Right ascension
02h 53m 45s
True Declination
0° 00' 00"
Sunlit
Object was in daylight at epoch
Visualization orbit readout
Latitude
Unknown
Longitude
Unknown
Altitude
Unknown
Speed
Unknown
Apparent Right ascension
Unknown
Apparent Declination
Unknown
Sunlit
N/A
Visualization observer readout
Local Sidereal Time
10:47:06
Azimuth
Unknown
Elevation
Unknown
Doppler factor
Unknown
Orbital elements
Apogee altitude
461.728 km
Perigee altitude
448.751 km
Semi-major axis
6,833.377 km
Eccentricity
0.00095
Inclination
97.4401°
RAAN
43.44°
Arg. of periapsis
123.3157°
True anomaly
236.80861°
Mean anomaly
236.8997°
Eccentric anomaly
236.85415°
Mean motion
3.84229 °/min
Orbital period
93.69 mins
BSTAR
0.0011601
Loading maneuver chart data...
Computing Atmospheric mass density...
Loading historical data...
Loading historical data...
Loading historical data...
Loading historical data...
Loading historical data...
Loading historical data...
Loading historical data...

Documentation

Showing up to 5 results
|